Home > Weather > Tunis > Past weeks

Flag for Tunisia Weather for the Past 2 Weeks in Tunis, Tunisia

Now
63 °F

Scattered clouds.


Feels Like: 63 °F
Forecast: 58 / 66 °F
Wind: 8 mph from South

Location: Tunis-Carthage

Current Time: Feb 12, 2016 at 11:05:52 AM

Latest Report: Feb 12, 2016 at 10:30 AM


Visibility: N/A

Pressure: 29.92 "Hg

Humidity: 83%

Dew point: 57 °F

Location of TunisLocation

Historic Weather in Tunis — Graph

°F

Tunis Temperature Yesterday

Maximum temperature yesterday: 72 °F (at 12:30 PM)
Minimum temperature yesterday: 57 °F (at 12:00 AM)
Average temperature yesterday: 64 °F

High & Low Weather Summary for the Past Weeks

 TemperatureHumidityPressure
High72 °F (Feb 11, 12:30 PM)100% (Jan 28, 10:00 AM)30.51 "Hg (Jan 28, 10:00 AM)
Low39 °F (Jan 30, 5:30 AM)31% (Feb 7, 1:00 PM)29.89 "Hg (Feb 11, 4:00 AM)
Average57 °F73%30.26 "Hg
* Reported Jan 28 10:00 AM — Feb 12 10:00 AM, Tunis, Weather by CustomWeather, © 2016

Note: Actual official high and low records may vary slightly from our data, if they occured in-between our weather recording intervals... More about our weather records

Advertising

Tunis Weather History for the Previous 24 Hours

 ConditionsComfort  
Time TempWeatherWind HumidityBarometerVisibility
10:00 AM
Fri, Feb 12
61 °FScattered clouds.9 mph83%29.95 "HgN/A
9:30 AM61 °FScattered clouds.8 mph83%29.92 "HgN/A
9:00 AM59 °FScattered clouds.9 mph88%29.92 "HgN/A
8:30 AM57 °FScattered clouds.8 mph94%29.92 "HgN/A
8:00 AM57 °FScattered clouds.8 mph94%29.92 "Hg5 mi
7:00 AM57 °FRain. Passing clouds.12 mph94%29.92 "Hg5 mi
6:30 AM59 °FPassing clouds.12 mph88%29.89 "Hg5 mi
6:00 AM57 °FPassing clouds.8 mph94%29.89 "Hg5 mi
5:30 AM57 °FPassing clouds.10 mph94%29.89 "Hg5 mi
5:00 AM57 °FPassing clouds.9 mph94%29.89 "Hg5 mi
4:30 AM57 °FPassing clouds.6 mph94%29.89 "Hg5 mi
4:00 AM57 °FPassing clouds.9 mph100%29.89 "Hg5 mi
3:30 AM57 °FPassing clouds.8 mph100%29.92 "Hg5 mi
3:00 AM59 °FPassing clouds.10 mph94%29.92 "Hg5 mi
1:30 AM59 °FLight rain. Passing clouds.6 mph88%29.92 "Hg5 mi
1:00 AM59 °FPassing clouds.6 mph88%29.92 "HgN/A
12:30 AM61 °FPassing clouds.7 mph83%29.95 "HgN/A
12:00 AM61 °FPassing clouds.7 mph83%29.95 "HgN/A
10:30 PM
Thu, Feb 11
64 °FPassing clouds.9 mph64%29.92 "HgN/A
9:30 PM64 °FPassing clouds.12 mph64%29.95 "HgN/A
9:00 PM64 °FPassing clouds.10 mph68%29.95 "HgN/A
8:30 PM64 °FPassing clouds.12 mph68%29.95 "HgN/A
8:00 PM64 °FPassing clouds.8 mph68%29.95 "HgN/A
7:30 PM64 °FPassing clouds.9 mph68%29.92 "HgN/A
7:00 PM64 °FPassing clouds.8 mph68%29.92 "HgN/A
6:30 PM64 °FPassing clouds.13 mph68%29.92 "HgN/A
6:00 PM66 °FPassing clouds.15 mph64%29.92 "HgN/A
5:30 PM66 °FScattered clouds.13 mph64%29.92 "HgN/A
5:00 PM68 °FScattered clouds.16 mph60%29.92 "HgN/A
4:30 PM68 °FScattered clouds.16 mph60%29.89 "HgN/A
4:00 PM68 °FScattered clouds.15 mph60%29.89 "HgN/A
3:30 PM68 °FScattered clouds.20 mph60%29.89 "HgN/A
3:00 PM70 °FScattered clouds.21 mph57%29.89 "HgN/A
2:30 PM70 °FScattered clouds.21 mph57%29.89 "HgN/A
2:00 PM70 °FScattered clouds.22 mph57%29.92 "HgN/A
1:30 PM70 °FScattered clouds.20 mph53%29.92 "HgN/A
1:00 PM72 °FScattered clouds.20 mph53%29.92 "HgN/A
12:30 PM72 °FScattered clouds.20 mph53%29.92 "HgN/A
12:00 PM70 °FScattered clouds.18 mph57%29.95 "HgN/A
11:30 AM70 °FScattered clouds.14 mph53%29.95 "HgN/A
11:00 AM68 °FScattered clouds.13 mph56%29.95 "HgN/A
Weather by CustomWeather, © 2016

See weather overviewHow to use our weather pages